Location: Charlottesville
(38.0290°N, 78.4770°W)
Time: 13:18:54
(UTC-04:00)

Tiangong 2 - Pass Details

Date: 12 October 2017
Orbit: 388 x 391 km, 42.8° (Epoch: 23 October)

Event Time Altitude Azimuth Distance (km) Brightness Sun altitude
Exits shadow 05:16:09 26° 57° (ENE) 805 3.3 -25.1°
Drops below altitude 10° 05:17:44 10° 64° (ENE) 1,421 4.9 -24.8°
Sets 05:19:50 0° 68° (ENE) 2,279 6.3 -24.4°
